15min,AgWx,evansfrm,411,22NOV2017:00:00:00,46.0,12.94,44.4,44.5,44.3,44.5,44.0,100,100,100,0.996,44.3,44.5,44.0,0,1.0,87,44,3.6,-0.00005,-0.00007,43.6,42.1,27,0,0,49.9,13.61,0.00,0.00
15min,AgWx,evansfrm,411,22NOV2017:00:15:00,46.0,12.93,45.4,45.4,44.9,45.5,44.4,98,100,94,0.972,44.4,44.7,43.8,0.965,0.6,25,18,2.2,-0.00005,-0.00008,43.8,42.1,27,0,0,50.8,13.61,0.00,0.00
15min,AgWx,evansfrm,411,22NOV2017:00:30:00,46.1,12.93,45.0,45.0,45.3,46.1,44.8,96,99,92,1.007,44.2,44.8,43.7,0,1.7,232,29,3.2,-0.00003,-0.00005,43.6,42.3,27,0,0,50.6,13.61,0.00,0.00
15min,AgWx,evansfrm,411,22NOV2017:00:45:00,46.2,12.92,45.6,45.6,45.0,45.6,44.6,99,100,96,1.000,44.7,44.9,44.5,3.595,2.6,127,12,4.0,-0.00004,-0.00005,43.7,42.3,27,0,0,50.3,13.61,0.00,0.00
15min,AgWx,evansfrm,411,22NOV2017:01:00:00,46.3,12.92,45.9,45.6,45.8,46.1,45.6,95,96,94,0.997,44.4,44.7,44.1,1.995,2.5,126,21,3.7,-0.00002,-0.00002,43.7,42.1,27,0,0,50.6,13.60,0.00,0.00
15min,AgWx,evansfrm,411,22NOV2017:01:15:00,46.3,12.92,45.7,45.5,45.6,45.9,45.4,96,97,95,0.996,44.6,44.8,44.3,1.469,1.7,157,45,3.6,-0.00004,-0.00005,43.6,42.1,27,0,0,51.1,13.61,0.00,0.00
15min,AgWx,evansfrm,411,22NOV2017:01:30:00,46.3,12.91,45.2,45.0,45.1,45.5,44.8,98,100,96,1.004,44.7,44.9,44.4,0,0.3,236,9.7,1.7,-0.00006,-0.00009,43.6,42.3,27,0,0,50.7,13.60,0.00,0.00
15min,AgWx,evansfrm,411,22NOV2017:01:45:00,46.2,12.91,44.8,45.0,44.7,45.0,44.3,100,100,99,1.007,44.7,44.9,44.3,0.789,0.7,105,22,1.8,-0.00005,-0.00008,43.6,42.1,27,0,0,50.5,13.60,0.00,0.00
15min,AgWx,evansfrm,411,22NOV2017:02:00:00,46.0,12.91,44.9,44.8,44.9,45.3,44.7,99,100,98,1.002,44.5,44.8,44.4,0,0.2,103,38,1.2,-0.00006,-0.00009,43.5,42.3,27,0,0,50.7,13.61,0.00,0.00
15min,AgWx,evansfrm,411,22NOV2017:02:15:00,46.0,12.91,44.6,44.5,44.7,45.0,44.5,100,100,99,0.998,44.6,44.8,44.5,0,0.3,195,41,2.9,-0.00006,-0.00009,43.5,42.1,27,0,0,50.7,13.60,0.00,0.00
15min,AgWx,evansfrm,411,22NOV2017:02:30:00,45.8,12.9,44.3,44.2,44.4,44.7,44.0,100,100,100,0.985,44.4,44.7,44.0,2.192,1.2,152,14,2.3,-0.00005,-0.00007,43.6,42.4,27,0,0,50.1,13.60,0.00,0.00
15min,AgWx,evansfrm,411,22NOV2017:02:45:00,45.7,12.9,44.8,44.9,44.5,44.9,44.2,100,100,99,1.002,44.5,44.9,44.2,3.223,2.1,112,12,3.2,-0.00004,-0.00006,43.6,42.3,27,0,0,49.7,13.60,0.00,0.00
15min,AgWx,evansfrm,411,22NOV2017:03:00:00,45.7,12.89,45.1,45.1,45.2,45.5,44.8,97,99,96,0.991,44.4,44.7,44.1,0,0.9,135,53,3.4,-0.00005,-0.00007,43.5,42.4,27,0,0,50.4,13.60,0.00,0.00
15min,AgWx,evansfrm,411,22NOV2017:03:15:00,45.6,12.89,44.9,44.8,44.7,45.1,44.3,99,100,97,0.998,44.4,44.7,44.2,0.789,1.1,24,14,2.4,-0.00005,-0.00007,43.4,41.9,27,0,0,50.0,13.60,0.00,0.00
15min,AgWx,evansfrm,411,22NOV2017:03:30:00,45.5,12.88,44.4,44.0,44.6,44.9,44.0,99,100,99,0.978,44.4,44.5,44.0,2.74,1.0,221,67,3.1,-0.00005,-0.00007,43.5,42.1,27,0,0,50.1,13.60,0.00,0.00
15min,AgWx,evansfrm,411,22NOV2017:03:45:00,45.4,12.88,44.1,43.9,44.0,44.2,43.8,100,100,100,0.973,44.0,44.2,43.8,1.118,1.7,180,24,3.9,-0.00005,-0.00006,43.5,42.4,27,0,0,48.9,13.60,0.00,0.00
15min,AgWx,evansfrm,411,22NOV2017:04:00:00,45.2,12.87,43.9,43.8,44.1,44.3,43.8,100,100,100,0.971,44.1,44.3,43.8,0,0.4,41,34,2.0,-0.00006,-0.00009,43.5,42.4,27,0,0,49.4,13.60,0.00,0.00
15min,AgWx,evansfrm,411,22NOV2017:04:15:00,45.1,12.87,44.2,44.3,43.9,44.4,43.5,100,100,100,0.991,43.9,44.4,43.5,0.088,0.7,327,21,1.8,-0.00005,-0.00008,43.4,42.1,27,0,0,49.6,13.60,0.00,0.00
15min,AgWx,evansfrm,411,22NOV2017:04:30:00,45.1,12.86,44.1,44.3,44.3,44.5,44.1,100,100,100,0.989,44.3,44.5,44.1,0,0.1,333,4.5,1.0,-0.00006,-0.00010,43.4,42.1,27,0,0,50.4,13.60,0.00,0.00
15min,AgWx,evansfrm,411,22NOV2017:04:45:00,45.1,12.86,44.4,44.3,44.4,44.7,44.2,100,100,100,0.989,44.4,44.7,44.2,0,0.9,323,77,2.3,-0.00005,-0.00008,43.4,42.1,27,0,0,50.5,13.60,0.00,0.00
15min,AgWx,evansfrm,411,22NOV2017:05:00:00,45.1,12.85,44.0,44.0,44.0,44.4,43.8,100,100,100,0.978,44.0,44.4,43.8,2.236,1.7,155,14,4.6,-0.00005,-0.00006,43.4,42.3,27,0,0,49.6,13.60,0.00,0.00
15min,AgWx,evansfrm,411,22NOV2017:05:15:00,45.0,12.85,44.4,44.5,44.2,44.5,43.9,100,100,100,0.998,44.2,44.5,43.9,1.491,2.7,160,32,6.5,-0.00004,-0.00005,43.4,42.3,27,0,0,48.7,13.60,0.00,0.00
15min,AgWx,evansfrm,411,22NOV2017:05:30:00,44.8,12.85,44.1,44.0,44.2,44.5,43.7,100,100,100,0.978,44.2,44.5,43.7,1.556,1.6,181,75,3.8,-0.00005,-0.00006,43.4,42.1,27,0,0,48.4,13.60,0.00,0.00
15min,AgWx,evansfrm,411,22NOV2017:05:45:00,44.3,12.84,42.3,42.0,43.4,44.2,42.0,100,100,100,0.907,43.4,44.2,42.0,2.499,1.3,139,19,3.0,-0.00005,-0.00007,43.4,42.1,27,0,0,46.9,13.60,0.00,0.00
15min,AgWx,evansfrm,411,22NOV2017:06:00:00,43.5,12.83,41.6,41.6,41.9,42.3,41.5,100,100,100,0.892,41.9,42.3,41.5,0.57,0.7,193,16,3.0,-0.00005,-0.00008,43.3,42.1,27,0,0,45.0,13.60,0.00,0.00
15min,AgWx,evansfrm,411,22NOV2017:06:15:00,42.7,12.84,40.3,40.5,40.6,41.7,39.2,100,100,100,0.854,40.6,41.7,39.2,0,1.6,94,18,3.0,-0.00004,-0.00006,43.3,42.1,27,0,0,44.5,13.61,0.00,0.00
15min,AgWx,evansfrm,411,22NOV2017:06:30:00,41.9,12.83,39.8,39.7,40.2,41.2,38.7,100,100,100,0.828,40.2,41.2,38.7,4.494,1.3,109,29,4.5,-0.00005,-0.00007,43.3,42.3,27,0,0,44.4,13.61,0.00,0.00
15min,AgWx,evansfrm,411,22NOV2017:06:45:00,41.5,12.82,40.8,41.0,40.3,41.1,39.8,100,100,100,0.872,40.3,41.2,39.8,1.14,3.0,108,21,4.4,-0.00004,-0.00005,43.3,42.3,27,0,0,44.7,13.61,0.00,0.00
15min,AgWx,evansfrm,411,22NOV2017:07:00:00,41.1,12.82,40.2,40.0,40.8,41.3,39.9,100,100,100,0.840,40.8,41.3,39.9,3.442,1.4,182,49,4.1,-0.00005,-0.00006,43.1,42.1,27,0,0,44.5,13.61,0.00,0.00
15min,AgWx,evansfrm,411,22NOV2017:07:15:00,40.9,12.81,40.3,40.2,40.0,40.3,39.6,100,100,100,0.846,40.0,40.3,39.6,3.179,2.9,153,19,5.0,-0.00004,-0.00005,43.1,42.3,27,0,0,44.4,13.61,0.00,0.00
15min,AgWx,evansfrm,411,22NOV2017:07:30:00,41.1,12.76,42.9,43.3,41.3,43.3,40.2,100,100,100,0.952,41.3,43.3,40.2,1.754,2.8,148,18,4.2,-0.00004,-0.00005,43.0,42.1,27,1,0,46.3,13.61,0.00,0.00
15min,AgWx,evansfrm,411,22NOV2017:07:45:00,41.6,12.81,42.5,42.4,42.7,43.4,42.0,100,100,100,0.919,42.7,43.4,42.0,1.578,1.2,35,30,3.8,-0.00001,-0.00001,42.9,41.9,27,4,0,48.2,13.60,0.00,0.00
15min,AgWx,evansfrm,411,22NOV2017:08:00:00,42.1,12.81,43.5,43.6,43.0,43.6,42.3,100,100,100,0.963,43.0,43.6,42.3,0,0.6,43,2.5,2.6,-0.00001,-0.00001,42.9,42.1,27,11,0,49.0,13.60,0.00,0.00
15min,AgWx,evansfrm,411,22NOV2017:08:15:00,42.7,12.81,44.0,43.8,44.0,44.3,43.6,99,100,97,0.972,43.7,43.9,43.4,1.096,0.9,158,18,2.2,0.00008,0.00009,42.9,42.1,27,14,0,50.5,13.60,0.00,0.00
15min,AgWx,evansfrm,411,22NOV2017:08:30:00,43.2,12.82,43.9,43.7,43.8,44.0,43.7,100,100,100,0.967,43.8,44.0,43.7,1.25,0.5,304,45,1.9,0.00013,0.00013,42.8,42.1,27,28,0,51.1,13.60,0.00,0.00
15min,AgWx,evansfrm,411,22NOV2017:08:45:00,43.7,12.82,44.5,44.2,44.0,44.4,43.6,100,100,99,0.988,44.0,44.4,43.7,1.513,1.4,193,27,3.4,0.00018,0.00019,42.7,42.3,27,42,0,51.8,13.60,0.00,0.00
15min,AgWx,evansfrm,411,22NOV2017:09:00:00,44.4,12.84,45.0,44.9,44.7,45.1,44.2,100,100,99,1.005,44.7,45.1,44.2,0.066,0.7,209,18,2.1,0.00025,0.00026,42.8,42.1,27,54,0,52.8,13.60,0.00,0.00
15min,AgWx,evansfrm,411,22NOV2017:09:15:00,45.4,12.88,46.9,47.0,45.8,47.0,45.0,98,100,94,1.045,45.4,46.1,44.8,0.789,2.6,150,16,4.6,0.00037,0.00040,42.8,42.1,27,102,0,55.0,13.60,0.00,0.00
15min,AgWx,evansfrm,411,22NOV2017:09:30:00,46.6,12.92,48.7,48.6,47.9,48.6,46.9,89,95,85,0.982,44.7,45.5,43.9,0,0.4,100,2.6,2.2,0.00052,0.00056,42.7,42.1,27,119,0,59.1,13.60,0.00,0.00
15min,AgWx,evansfrm,411,22NOV2017:09:45:00,48.1,13.01,49.7,49.5,49.0,49.5,48.4,81,85,78,0.955,43.6,44.3,42.6,1.293,0.4,175,22,1.4,0.00069,0.00074,42.9,42.1,27,156,0,63.2,13.60,0.00,0.00
15min,AgWx,evansfrm,411,22NOV2017:10:00:00,49.4,12.97,50.2,49.3,49.3,49.7,49.2,78,80,76,0.943,42.9,43.7,42.0,0.855,1.7,295,25,3.1,0.00068,0.00079,42.9,41.9,27,128,0,60.4,13.60,0.00,0.00
15min,AgWx,evansfrm,411,22NOV2017:10:15:00,50.1,12.94,49.9,49.5,49.4,49.5,49.2,81,83,79,0.966,43.7,44.5,43.0,0.614,1.2,256,42,3.2,0.00056,0.00064,43.0,42.1,27,91,0,58.8,13.60,0.00,0.00
15min,AgWx,evansfrm,411,22NOV2017:10:30:00,50.8,12.94,50.1,49.8,49.7,49.9,49.5,80,82,78,0.990,43.9,44.5,43.3,0,1.1,5.4,17,2.1,0.00066,0.00074,42.9,41.9,27,113,0,60.2,13.60,0.00,0.00
15min,AgWx,evansfrm,411,22NOV2017:10:45:00,51.3,12.96,50.4,50.4,50.0,50.4,49.7,80,82,78,0.975,44.0,44.6,43.5,1.995,1.0,26,39,2.1,0.00067,0.00075,43.2,42.1,27,115,0,60.3,13.60,0.00,0.00
15min,AgWx,evansfrm,411,22NOV2017:11:00:00,52.2,13.07,51.7,51.5,50.9,51.6,50.2,78,79,75,0.980,44.3,45.1,43.6,1.885,0.9,33,29,3.5,0.00097,0.00107,43.2,41.9,27,186,0,63.9,13.60,0.00,0.00
15min,AgWx,evansfrm,411,22NOV2017:11:15:00,53.6,13.25,53.7,53.0,52.3,53.0,51.4,75,78,73,1.012,44.7,45.8,43.9,0,0.4,349,43,2.5,0.00116,0.00126,43.4,42.1,27,224,0,67.5,13.60,0.00,0.00
15min,AgWx,evansfrm,411,22NOV2017:11:30:00,55.8,13.73,55.5,54.7,54.0,54.7,53.0,69,74,66,0.990,44.2,45.1,43.4,3.442,1.2,358,19,3.7,0.00199,0.00218,43.5,42.1,27,408,0,68.6,13.60,0.00,0.00
15min,AgWx,evansfrm,411,22NOV2017:11:45:00,58.6,13.66,56.9,54.9,54.9,55.2,54.5,66,69,63,0.929,43.9,45.3,42.4,1.863,1.9,326,25,4.1,0.00180,0.00203,43.7,42.1,27,343,0,67.5,13.60,0.00,0.00
15min,AgWx,evansfrm,411,22NOV2017:12:00:00,61.4,14.01,59.0,56.3,56.0,57.0,54.9,63,67,59,0.954,43.6,45.5,42.3,1.359,2.6,295,20,4.6,0.00247,0.00280,43.8,42.1,27,480,0,67.7,13.60,0.00,0.00
15min,AgWx,evansfrm,411,22NOV2017:12:15:00,64.4,14.15,59.6,58.1,57.2,58.1,56.4,60,63,58,0.971,43.4,44.6,42.5,0.986,2.8,320,32,4.8,0.00256,0.00293,44.1,42.1,27,485,0,69.0,13.60,0.00,0.00
15min,AgWx,evansfrm,411,22NOV2017:12:30:00,67.7,14.11,61.5,60.4,59.0,60.5,58.1,57,64,52,0.956,43.7,46.5,42.4,2.105,1.6,288,52,3.7,0.00272,0.00303,44.3,42.1,27,505,0,74.7,13.60,0.00,0.00
15min,AgWx,evansfrm,411,22NOV2017:12:45:00,70.5,14.04,62.4,59.4,60.2,61.2,59.3,55,58,52,0.943,43.8,45.7,42.6,0.943,1.8,360,62,4.1,0.00291,0.00326,44.6,42.4,27,527,0,77.6,13.60,0.00,0.00
15min,AgWx,evansfrm,411,22NOV2017:13:00:00,71.9,13.45,60.6,59.0,59.4,59.9,59.0,56,59,54,0.951,43.7,45.7,42.7,0.307,2.0,330,22,3.6,0.00191,0.00220,44.8,42.3,27,332,0,76.4,13.60,0.00,0.00
15min,AgWx,evansfrm,411,22NOV2017:13:15:00,71.2,13.45,59.9,59.1,58.9,59.2,58.5,57,58,56,0.956,43.5,44.4,43.0,2.389,2.0,334,18,4.2,0.00143,0.00170,45.1,42.4,27,230,0,71.6,13.60,0.00,0.00
15min,AgWx,evansfrm,411,22NOV2017:13:30:00,69.9,13.4,59.9,59.2,59.4,59.7,59.0,56,58,54,0.951,43.7,44.8,43.1,3.047,1.8,338,22,3.7,0.00131,0.00156,45.5,42.6,27,204,0,71.8,13.60,0.00,0.00
15min,AgWx,evansfrm,411,22NOV2017:13:45:00,68.8,13.55,59.8,59.4,59.5,59.9,59.1,56,59,54,0.965,43.9,45.2,43.1,2.74,2.7,351,26,4.8,0.00161,0.00194,45.8,42.8,27,266,0,71.1,13.61,0.00,0.00
15min,AgWx,evansfrm,411,22NOV2017:14:00:00,67.9,13.57,60.2,59.9,59.7,60.1,59.3,55,58,54,0.961,43.7,44.7,43.0,0,2.3,11,18,3.9,0.00146,0.00176,46.2,42.4,27,240,0,70.7,13.61,0.00,0.00
15min,AgWx,evansfrm,411,22NOV2017:14:15:00,67.7,13.57,61.6,60.4,60.5,61.1,60.0,54,57,53,0.966,43.8,45.4,43.1,1.447,0.9,349,37,2.4,0.00137,0.00155,46.4,42.6,27,254,0,73.7,13.60,0.00,0.00
15min,AgWx,evansfrm,411,22NOV2017:14:30:00,67.7,13.52,61.6,61.0,60.6,61.1,60.3,54,57,53,1.033,44.0,45.4,43.1,2.455,1.3,284,58,2.9,0.00130,0.00151,46.6,42.8,27,237,0,73.0,13.60,0.00,0.00
15min,AgWx,evansfrm,411,22NOV2017:14:45:00,67.7,13.7,62.1,61.5,61.1,61.5,60.7,54,59,52,1.002,44.5,46.7,43.6,2.609,2.0,226,21,4.0,0.00135,0.00162,46.9,43.0,27,250,0,72.4,13.60,0.00,0.00
15min,AgWx,evansfrm,411,22NOV2017:15:00:00,67.6,13.8,61.6,61.5,61.5,61.8,61.1,55,58,53,0.998,45.3,46.9,43.9,3.968,3.5,230,14,5.4,0.00147,0.00187,47.2,43.2,27,270,0,70.5,13.60,0.00,0.00
15min,AgWx,evansfrm,411,22NOV2017:15:15:00,67.3,13.6,61.6,60.9,61.1,61.5,60.8,55,58,54,1.025,44.9,46.2,44.0,1.469,2.7,256,18,5.3,0.00105,0.00136,47.3,43.3,27,182,0,68.5,13.61,0.00,0.00
15min,AgWx,evansfrm,411,22NOV2017:15:30:00,66.9,13.62,62.3,60.9,61.3,61.7,60.9,54,57,52,0.988,44.5,45.8,43.6,1.337,2.1,267,12,3.2,0.00092,0.00118,47.6,43.3,27,204,0,69.5,13.61,0.00,0.00
15min,AgWx,evansfrm,411,22NOV2017:15:45:00,66.3,13.52,60.9,60.4,60.8,61.2,60.4,56,58,53,1.039,44.9,46.1,44.0,2.28,2.3,249,17,3.7,0.00068,0.00093,47.7,43.5,27,145,0,68.0,13.60,0.00,0.00
15min,AgWx,evansfrm,411,22NOV2017:16:00:00,65.4,13.37,60.5,59.6,60.0,60.4,59.5,57,60,56,1.011,44.8,45.7,44.0,1.315,1.7,277,14,3.1,0.00039,0.00057,47.9,43.7,27,98,0,65.1,13.61,0.00,0.00
15min,AgWx,evansfrm,411,22NOV2017:16:15:00,64.1,13.32,60.4,60.3,59.9,60.4,59.4,58,60,56,1.005,45.1,46.7,44.3,0,0.4,279,11,1.7,0.00004,0.00007,48.1,43.9,27,77,0,64.7,13.61,0.00,0.00
15min,AgWx,evansfrm,411,22NOV2017:16:30:00,62.6,13.25,57.7,57.3,58.7,60.3,57.3,62,71,57,1.145,45.7,48.5,44.1,0,0.4,97,1.9,1.7,-0.00015,-0.00013,48.2,43.9,27,48,0,62.5,13.61,0.00,0.00
15min,AgWx,evansfrm,411,22NOV2017:16:45:00,60.8,13.19,54.7,54.6,56.1,57.3,54.6,70,74,66,0.997,46.5,48.4,44.4,1.228,0.7,165,17,1.6,-0.00026,-0.00024,48.2,43.9,27,24,0,59.3,13.61,0.00,0.00
15min,AgWx,evansfrm,411,22NOV2017:17:00:00,58.7,13.16,51.5,51.0,53.5,55.0,50.8,72,77,69,0.984,44.7,45.8,44.0,0.46,0.7,118,39,2.2,-0.00017,-0.00014,48.2,44.2,27,8,0,56.3,13.61,0.00,0.00
15min,AgWx,evansfrm,411,22NOV2017:17:15:00,56.6,13.14,50.1,50.1,51.5,52.4,50.1,75,79,73,0.969,44.0,44.4,43.5,2.389,0.5,103,6.9,2.5,-0.00026,-0.00039,48.3,44.2,27,1,0,54.1,13.61,0.00,0.00
15min,AgWx,evansfrm,411,22NOV2017:17:30:00,54.5,13.12,50.0,49.8,50.3,52.3,49.1,80,83,75,0.975,44.2,45.1,43.5,2.74,2.0,88,15,3.7,-0.00015,-0.00020,48.3,44.2,27,0,0,53.8,13.61,0.00,0.00
15min,AgWx,evansfrm,411,22NOV2017:17:45:00,52.9,13.11,48.9,49.2,48.8,50.0,47.8,83,86,79,0.962,43.9,44.2,43.5,0.395,1.7,105,11,3.5,-0.00018,-0.00023,48.3,44.2,27,0,0,52.5,13.61,0.00,0.00
15min,AgWx,evansfrm,411,22NOV2017:18:00:00,51.3,13.1,47.0,47.3,47.6,49.0,47.1,86,88,81,0.969,43.6,43.9,43.3,1.25,0.3,342,45,1.6,-0.00027,-0.00043,48.2,44.6,27,0,0,50.4,13.61,0.00,0.00
15min,AgWx,evansfrm,411,22NOV2017:18:15:00,50.0,13.09,46.4,46.6,47.0,48.4,45.6,87,91,86,0.962,43.5,44.4,42.5,2.806,2.1,124,39,3.6,-0.00016,-0.00021,48.1,44.6,27,0,0,49.5,13.61,0.00,0.00
15min,AgWx,evansfrm,411,22NOV2017:18:30:00,49.1,13.08,46.5,46.2,48.5,50.3,46.2,82,89,76,0.918,43.2,44.1,42.0,2.039,2.1,122,12,2.9,-0.00015,-0.00019,48.1,44.8,27,0,0,50.7,13.61,0.00,0.00
15min,AgWx,evansfrm,411,22NOV2017:18:45:00,48.1,13.07,45.7,45.7,45.7,46.7,44.5,89,93,84,0.933,42.6,43.5,41.3,2.192,2.5,142,20,3.7,-0.00015,-0.00019,47.9,44.8,27,0,0,49.3,13.61,0.00,0.00
15min,AgWx,evansfrm,411,22NOV2017:19:00:00,47.3,13.02,44.3,44.2,45.4,47.0,43.9,90,93,86,0.918,42.5,43.9,41.6,2.148,2.3,134,14,3.0,-0.00016,-0.00021,47.8,44.8,27,0,0,48.8,13.61,0.00,0.00
15min,AgWx,evansfrm,411,22NOV2017:19:15:00,46.4,13.05,43.1,43.2,43.2,44.2,42.8,96,99,92,0.941,42.1,43.0,41.6,0,0.9,119,9.6,2.5,-0.00023,-0.00032,47.7,44.8,27,0,0,47.8,13.61,0.00,0.00
15min,AgWx,evansfrm,411,22NOV2017:19:30:00,45.5,13.05,43.2,43.4,43.5,43.8,43.3,96,99,94,0.916,42.3,43.0,41.8,0,0.0,105,0.4,0.5,-0.00027,-0.00044,47.5,45.0,27,0,0,46.8,13.61,0.00,0.00
15min,AgWx,evansfrm,411,22NOV2017:19:45:00,44.9,13.04,43.1,42.9,43.7,44.3,42.9,95,96,93,0.893,42.4,43.2,41.6,0.329,0.7,91,11,1.4,-0.00024,-0.00035,47.4,44.8,27,0,0,46.6,13.61,0.00,0.00
15min,AgWx,evansfrm,411,22NOV2017:20:00:00,44.3,13.03,43.0,43.0,42.4,43.0,42.0,98,100,95,0.934,41.9,42.8,41.2,2.872,0.5,129,22,3.2,-0.00024,-0.00037,47.2,45.0,27,0,0,45.9,13.61,0.00,0.00
15min,AgWx,evansfrm,411,22NOV2017:20:15:00,43.9,13.02,43.7,43.9,43.5,44.0,42.8,97,99,95,0.929,42.8,43.4,42.1,2.477,2.2,176,19,3.5,-0.00018,-0.00024,47.0,44.8,27,0,0,46.7,13.61,0.00,0.00
15min,AgWx,evansfrm,411,22NOV2017:20:30:00,43.8,13.02,44.0,43.8,44.2,45.6,43.0,94,98,90,0.910,42.6,43.4,41.9,0.877,1.3,74,46,2.5,-0.00021,-0.00029,46.9,44.8,27,0,0,47.3,13.61,0.00,0.00
15min,AgWx,evansfrm,411,22NOV2017:20:45:00,43.6,13.01,44.1,44.0,43.2,44.0,42.5,97,99,94,0.953,42.4,43.3,41.2,2.083,0.8,79,59,2.5,-0.00023,-0.00034,46.8,45.0,27,0,0,46.6,13.61,0.00,0.00
15min,AgWx,evansfrm,411,22NOV2017:21:00:00,43.3,13,43.4,43.2,43.8,44.6,43.0,95,97,92,0.912,42.4,43.7,41.3,0.723,0.6,24,18,1.8,-0.00024,-0.00035,46.6,44.8,27,0,0,47.0,13.61,0.00,0.00
15min,AgWx,evansfrm,411,22NOV2017:21:15:00,42.9,13,42.6,42.6,43.0,43.5,42.5,96,98,94,0.893,41.9,42.5,41.0,0.438,0.5,61,14,2.1,-0.00024,-0.00036,46.5,44.8,27,0,0,46.2,13.61,0.00,0.00
15min,AgWx,evansfrm,411,22NOV2017:21:30:00,42.5,12.99,42.1,42.1,42.6,43.0,42.1,97,99,96,0.881,41.7,42.6,40.9,1.863,0.5,2.5,52,2.3,-0.00025,-0.00037,46.4,44.8,27,0,0,45.4,13.61,0.00,0.00
15min,AgWx,evansfrm,411,22NOV2017:21:45:00,42.2,12.99,42.1,42.2,42.5,43.2,41.6,97,99,94,0.865,41.8,42.6,40.2,0,1.0,45,66,3.1,-0.00022,-0.00032,46.2,44.8,27,0,0,45.4,13.61,0.00,0.00
15min,AgWx,evansfrm,411,22NOV2017:22:00:00,41.5,12.99,41.0,40.9,41.4,42.1,40.8,98,100,94,0.855,40.9,41.9,40.2,0.307,0.3,157,43,1.8,-0.00025,-0.00039,46.2,44.8,27,0,0,44.1,13.61,0.00,0.00
15min,AgWx,evansfrm,411,22NOV2017:22:15:00,41.1,12.97,39.8,39.6,40.8,42.2,39.6,99,100,98,0.824,40.6,42.2,39.5,2.696,1.7,212,48,2.9,-0.00020,-0.00027,45.9,44.6,27,0,0,43.1,13.61,0.00,0.00
15min,AgWx,evansfrm,411,22NOV2017:22:30:00,40.8,12.97,42.4,43.2,40.9,43.4,39.1,100,100,96,0.912,40.8,43.2,39.1,1.995,2.9,138,6.5,3.5,-0.00017,-0.00021,45.8,44.6,27,0,0,43.2,13.61,0.00,0.00
15min,AgWx,evansfrm,411,22NOV2017:22:45:00,40.6,12.97,40.5,40.5,42.0,44.4,39.6,96,100,87,0.856,40.9,42.9,37.7,4.165,2.3,115,18,4.2,-0.00017,-0.00022,45.8,44.8,27,0,0,44.7,13.61,0.00,0.00
15min,AgWx,evansfrm,411,22NOV2017:23:00:00,40.4,12.96,40.7,40.5,40.9,41.3,40.4,100,100,99,0.856,40.8,41.3,40.2,0.921,2.1,76,17,4.3,-0.00019,-0.00024,45.6,44.6,27,0,0,43.8,13.61,0.00,0.00
15min,AgWx,evansfrm,411,22NOV2017:23:15:00,40.2,12.95,40.3,40.1,40.6,40.8,40.1,100,100,100,0.842,40.6,40.8,40.1,4.604,1.8,23,33,5.2,-0.00020,-0.00026,45.4,44.6,27,0,0,43.5,13.61,0.00,0.00
15min,AgWx,evansfrm,411,22NOV2017:23:30:00,39.7,12.95,38.3,38.4,38.4,39.9,37.7,100,100,99,0.788,38.4,39.9,37.7,1.556,1.1,198,46,4.8,-0.00021,-0.00029,45.2,44.6,27,0,0,41.7,13.61,0.00,0.00
15min,AgWx,evansfrm,411,22NOV2017:23:45:00,39.4,12.95,38.8,38.5,39.1,39.7,38.4,100,100,100,0.790,39.1,39.7,38.4,0,0.9,37,15,2.6,-0.00021,-0.00031,45.1,44.4,27,0,0,42.2,13.61,0.00,0.00
15min,AgWx,drainfrm,410,22NOV2017:00:00:00,45.4,12.41,44.1,44.7,44.9,45.2,44.6,91,92,91,0.926,42.6,42.7,42.4,1.776,2.6,290,9.1,3.5,-0.00012,-0.00015,42.8,41.5,30,0,100,48.9,13.11,0.00,0.00
15min,AgWx,drainfrm,410,22NOV2017:00:15:00,45.5,12.4,44.4,45.0,44.9,45.1,44.7,92,92,92,0.937,42.7,42.9,42.5,0.921,1.4,3.2,85,3.0,-0.00017,-0.00023,42.8,41.7,30,0,100,49.1,13.11,0.00,0.00
15min,AgWx,drainfrm,410,22NOV2017:00:30:00,45.6,12.39,44.6,45.1,45.0,45.1,44.9,93,93,92,0.949,43.1,43.3,42.8,1.491,2.2,97,16,3.5,-0.00014,-0.00018,42.8,41.9,30,0,100,48.9,13.11,0.00,0.00
15min,AgWx,drainfrm,410,22NOV2017:00:45:00,45.7,12.4,44.7,45.2,45.2,45.4,45.1,93,93,93,0.954,43.3,43.5,43.2,2.74,2.2,108,20,3.2,-0.00014,-0.00018,42.8,41.9,30,0,100,49.0,13.11,0.00,0.00
15min,AgWx,drainfrm,410,22NOV2017:01:00:00,45.8,12.39,45.1,45.8,45.5,45.8,45.1,92,93,91,0.952,43.4,43.6,43.1,0.022,1.3,87,50,2.8,-0.00017,-0.00023,42.7,41.9,30,0,100,49.6,13.11,0.00,0.00
15min,AgWx,drainfrm,410,22NOV2017:01:15:00,45.8,12.39,44.7,45.3,45.6,45.9,45.2,92,93,91,0.959,43.4,43.6,43.2,1.14,1.9,239,19,5.0,-0.00015,-0.00020,42.8,41.7,30,0,100,49.9,13.11,0.00,0.00
15min,AgWx,drainfrm,410,22NOV2017:01:30:00,45.8,12.39,44.5,45.0,45.2,45.3,45.0,93,93,92,0.939,43.3,43.6,42.9,1.074,1.9,229,12,3.6,-0.00015,-0.00020,42.8,42.1,30,0,100,49.1,13.11,0.00,0.00
15min,AgWx,drainfrm,410,22NOV2017:01:45:00,45.8,12.39,44.6,45.1,45.1,45.2,44.9,92,92,91,0.931,42.8,43.0,42.6,1.556,1.7,212,31,4.0,-0.00015,-0.00020,42.8,42.1,30,0,100,48.9,13.11,0.00,0.00
15min,AgWx,drainfrm,410,22NOV2017:02:00:00,45.7,12.39,44.4,45.0,45.0,45.3,44.8,92,93,91,0.935,42.7,42.9,42.5,1.381,1.6,147,20,2.3,-0.00016,-0.00021,42.8,41.9,30,0,100,49.0,13.11,0.00,0.00
15min,AgWx,drainfrm,410,22NOV2017:02:15:00,45.7,12.39,44.4,44.9,45.0,45.1,44.8,92,93,92,0.937,42.9,43.0,42.7,1.71,1.9,209,18,3.3,-0.00015,-0.00020,42.8,42.1,30,0,100,48.7,13.11,0.00,0.00
15min,AgWx,drainfrm,410,22NOV2017:02:30:00,45.6,12.38,44.2,44.7,44.8,45.0,44.5,93,93,93,0.937,42.8,43.0,42.6,3.003,2.5,206,15,4.3,-0.00013,-0.00017,42.8,41.9,30,0,100,48.3,13.11,0.00,0.00
15min,AgWx,drainfrm,410,22NOV2017:02:45:00,45.5,12.39,44.3,44.8,44.8,45.0,44.6,92,93,91,0.924,42.7,42.9,42.5,1.71,2.4,178,16,4.0,-0.00013,-0.00017,42.7,42.1,30,0,100,48.1,13.11,0.00,0.00
15min,AgWx,drainfrm,410,22NOV2017:03:00:00,45.4,12.39,44.1,44.8,44.7,44.8,44.6,92,92,91,0.921,42.4,42.5,42.3,3.288,2.0,134,7.1,3.3,-0.00014,-0.00019,42.8,42.1,30,0,100,48.5,13.11,0.00,0.00
15min,AgWx,drainfrm,410,22NOV2017:03:15:00,45.3,12.38,44.6,45.3,44.9,45.4,44.7,91,92,89,0.921,42.5,42.6,42.3,1.995,2.4,141,25,3.5,-0.00013,-0.00016,42.8,41.9,30,0,100,48.2,13.11,0.00,0.00
15min,AgWx,drainfrm,410,22NOV2017:03:30:00,45.2,12.39,44.0,44.5,45.0,45.3,44.5,91,92,90,0.919,42.5,42.7,42.3,1.622,1.4,220,20,2.2,-0.00017,-0.00023,42.7,41.9,30,0,100,48.6,13.11,0.00,0.00
15min,AgWx,drainfrm,410,22NOV2017:03:45:00,45.0,12.38,42.9,43.4,44.0,44.5,43.4,93,94,92,0.895,42.1,42.5,41.7,0.482,2.0,262,21,3.7,-0.00015,-0.00019,42.8,42.1,30,0,100,47.6,13.11,0.00,0.00
15min,AgWx,drainfrm,410,22NOV2017:04:00:00,44.7,12.38,42.5,43.2,43.2,43.4,43.0,94,94,94,0.892,41.6,41.8,41.4,0,0.6,273,4.3,1.6,-0.00020,-0.00029,42.8,42.1,30,0,100,47.1,13.11,0.00,0.00
15min,AgWx,drainfrm,410,22NOV2017:04:15:00,44.5,12.38,43.1,43.5,43.3,43.5,43.1,95,96,94,0.916,41.9,42.3,41.5,2.039,2.2,85,16,3.4,-0.00014,-0.00019,42.8,42.1,30,0,100,47.1,13.11,0.00,0.00
15min,AgWx,drainfrm,410,22NOV2017:04:30:00,44.4,12.38,43.7,44.2,43.9,44.2,43.4,96,96,95,0.937,42.7,42.9,42.2,3.398,2.2,77,28,3.6,-0.00015,-0.00019,42.9,41.9,30,0,100,47.4,13.11,0.00,0.00
15min,AgWx,drainfrm,410,22NOV2017:04:45:00,44.5,12.38,44.3,44.9,44.6,44.9,44.1,94,95,92,0.935,42.9,43.0,42.7,2.565,2.7,97,8.1,3.7,-0.00013,-0.00016,42.8,42.1,30,0,100,47.7,13.11,0.00,0.00
15min,AgWx,drainfrm,410,22NOV2017:05:00:00,44.5,12.38,44.5,45.2,45.0,45.3,44.8,92,92,91,0.935,42.8,43.0,42.7,1.995,2.0,85,8.1,2.6,-0.00014,-0.00019,42.8,42.3,30,0,100,48.1,13.11,0.00,0.00
15min,AgWx,drainfrm,410,22NOV2017:05:15:00,44.4,12.38,43.7,44.4,44.8,45.2,44.4,92,93,91,0.920,42.5,42.8,42.0,0,0.7,115,54,2.2,-0.00020,-0.00029,42.9,42.1,30,0,100,48.2,13.11,0.00,0.00
15min,AgWx,drainfrm,410,22NOV2017:05:30:00,44.1,12.38,42.5,43.1,43.6,44.4,43.1,93,95,92,0.893,41.9,42.3,41.4,1.688,1.1,252,8.2,2.8,-0.00018,-0.00025,42.9,41.9,30,0,100,46.9,13.11,0.00,0.00
15min,AgWx,drainfrm,410,22NOV2017:05:45:00,43.5,12.38,40.9,41.4,42.6,43.3,41.4,96,96,95,0.848,41.5,42.1,40.3,1.951,2.2,251,15,3.3,-0.00015,-0.00019,42.8,41.9,30,0,100,44.9,13.11,0.00,0.00
15min,AgWx,drainfrm,410,22NOV2017:06:00:00,42.7,12.37,40.0,40.8,41.1,41.5,40.6,96,96,96,0.829,40.1,40.4,39.5,2.258,2.5,272,10,4.3,-0.00013,-0.00017,42.7,42.3,30,0,100,43.4,13.11,0.00,0.00
15min,AgWx,drainfrm,410,22NOV2017:06:15:00,42.0,12.37,39.0,39.8,40.5,40.9,39.4,96,96,95,0.799,39.4,39.9,38.2,1.885,1.1,206,57,3.2,-0.00017,-0.00024,42.7,42.3,30,0,100,42.8,13.11,0.00,0.00
15min,AgWx,drainfrm,410,22NOV2017:06:30:00,41.3,12.38,39.0,39.6,39.4,40.0,39.1,97,97,96,0.803,38.5,39.1,38.2,2.609,2.9,107,12,4.4,-0.00012,-0.00015,42.8,42.3,30,0,100,41.9,13.11,0.00,0.00
15min,AgWx,drainfrm,410,22NOV2017:06:45:00,40.8,12.37,40.2,40.9,40.4,40.9,39.7,98,98,97,0.848,39.8,40.3,38.9,2.192,2.0,98,9.7,2.6,-0.00015,-0.00020,42.8,42.3,30,0,100,43.1,13.11,0.00,0.00
15min,AgWx,drainfrm,410,22NOV2017:07:00:00,40.5,12.37,40.3,41.1,40.8,41.1,40.4,98,98,97,0.850,40.1,40.4,39.7,2.017,1.6,167,15,3.0,-0.00016,-0.00022,42.7,42.3,30,0,100,43.2,13.11,0.00,0.00
15min,AgWx,drainfrm,410,22NOV2017:07:15:00,40.6,12.37,40.9,41.6,41.0,41.6,40.4,97,97,96,0.860,40.2,40.7,39.5,3.179,2.5,181,17,3.2,-0.00014,-0.00018,42.7,42.1,30,0,100,45.1,13.11,0.00,0.00
15min,AgWx,drainfrm,410,22NOV2017:07:30:00,40.9,12.36,41.4,42.2,42.1,42.4,41.5,97,97,96,0.877,41.2,41.6,40.6,0,1.9,230,52,4.0,-0.00015,-0.00020,42.6,42.1,30,1,100,45.7,13.11,0.00,0.00
15min,AgWx,drainfrm,410,22NOV2017:07:45:00,41.3,12.37,41.7,42.2,42.3,42.4,42.1,96,96,96,0.882,41.3,41.5,41.0,1.25,1.0,128,17,1.7,0.00001,0.00001,42.7,42.1,30,4,100,46.9,13.11,0.00,0.00